CZ-6A DEB

Satellite information

Favourite Embed

Satellite Type and Status

DEBRISIN ORBIT

Key statistics

Satellite CZ-6A DEB at a glance.

Uptime

908

Days in orbit

Revolutions

≈ 14.6

Per day

Orbit

SSO

Sun Synchronous Orbit

Inclination

98.7

Latest

Satellite identification and parameters

Extended collection of information and parameters for CZ-6A DEB.

Object identification

Identified? True

Debris? True

Object name: CZ-6A DEB

International designator: 2022-151PJ

Object number (NORAD): 54632

Object ID (CCSDS): 54632

Country: PEOPLES REPUBLIC OF CHINA (PRC)

Current information (Y/N): Y

RCS size: SMALL

Orbital parameters

Period: 98.37 minutes

Inclination: 98.6566 deg

SMA: 7058.876 km

Apoapsis: 735.185 km

Periapsis: 626.296 km

RAAN: 166.9129 deg

Eccentricy: 0.0077129

Argument of periapsis: 116.5875 deg

Mean anomaly: 244.3256 deg

Mean motion: 14.63859694 rev/day

Mean motion (dot): 0.00019718 rev/day2

B* drag term: 0.0036153 1/REarth

Two-line elements (TLE)

Creation date: May 7, 2025, 3:14 a.m.

Reference frame: TEME

Reference center: EARTH

Epoch: May 6, 2025, 9:18 p.m. UTC

TLE line 0: 0 CZ-6A DEB

TLE line 1: 1 54632U 22151PJ 25126.88796817 .00019718 00000-0 36153-2 0 9997

TLE line 2: 2 54632 98.6566 166.9129 0077129 116.5875 244.3256 14.63859694129592

Live tracking on map

Real-time ground track for satellite CZ-6A DEB.

In-orbit conjunctions

A list of the most updated potential collisions computed for object CZ-6A DEB.

Target Orbit TCA Probability of collision Miss distance Type
CZ-2C R/B LEO 2025-01-10 09:50:14 0.0008238459 60.0 (m) ROCKET BODY
COSMOS 2441 SSO 2024-12-10 17:54:12 0.0003245799 392.0 (m) PAYLOAD
IRIDIUM 63 LEO 2024-11-28 08:44:46 0.0003215233 433.0 (m) PAYLOAD
IRIDIUM 33 DEB LEO 2024-10-15 12:07:44 0.0001143508 188.0 (m) DEBRIS
COSMOS 2251 DEB LEO 2024-08-23 16:29:29 0.0001977403 207.0 (m) DEBRIS

Associated space launch

Chinese satellite reported for atmospheric/ocean/environmental/spatial parameter research purposes, details TBD.

CZ-6A DEB was lifted into orbit during the mission ‘Long March 6A | Yunhai 3’, on board a Long March 6A space rocket.

The launch took place on Nov. 11, 2022, 10:52 p.m. from Launch Complex 9A.

For more information about the launch, click the button.

Launch to space Long March 6A | Yunhai 3
Long March 6A | Yunhai 3

Agency: N/A

Status: Launch Successful

Launch date: Nov. 11, 2022, 10:52 p.m. UTC

Rocket: Long March 6A

Launch pad: Launch Complex 9A

Location: Taiyuan Satellite Launch Center, People's Republic of China

...

Latest news about this satellite

There are no fresh news available about this satellite. Check back as we update our databases every day.


Newsletter sign-up

Weekly statistics, charts and insights to help you stay on top of the space industry.